Weather in Ivanivka

Ukraine / Chernihiv Region     51°22′34″N   31°16′49″E
temp.,
°C
wind,
m/s
gust,
m/s
humid.,
%
clouds,
%
prec.,
mm/h
press.,
hPa
HPBL,
m
28 september, tue
tue2800:00+7nne33895 0.0 102547
03:00+6ne34945 0.0 102568
06:00+5nne35965 0.0 102699
09:00+8nne35835 0.0 1026258
12:00+12ne456030 0.0 10271199
15:00+11ne4569100 0.2 1027837
18:00+10ne367799 0.0 1028410
21:00+9ne4886100 0.0 1029294
29 september, wed
wed2900:00+8ene488973 0.0 1031351
03:00+6ene37917 0.0 1032188
06:00+4ene36945 0.0 1032131
09:00+8e4783100 0.0 1033386
12:00+9e466755 0.0 1034687
15:00+12e4452100 0.0 10331540
18:00+11e245765 0.0 103293
21:00+6e33735 0.0 103332
30 september, thu
thu3000:00+5e34765 0.0 103456
03:00+4e33785 0.0 103436
06:00+3e338120 0.0 103436
09:00+6ese356754 0.0 1035194
12:00+11se344813 0.0 1034798
15:00+13ese34415 0.0 10331192
18:00+10ese34565 0.0 103346
21:00+7ese34645 0.0 103452
1 october, fri
fri100:00+6se33685 0.0 103436
03:00+5se22705 0.0 103420
06:00+4se22725 0.0 103523
09:00+8se346032 0.0 1035163
12:00+13sse34435 0.0 1034752
15:00+15sse343826 0.0 10331273
18:00+11se335270 0.0 103222
21:00+8se3460100 0.0 103356
2 october, sat
sat200:00+7sse346399 0.0 103361
03:00+6sse3467100 0.0 103356
06:00+5sse347011 0.0 103256
09:00+8sse365951 0.0 1032198
12:00+14sse5643100 0.0 1031820
15:00+15sse563817 0.0 10301268
18:00+12se46525 0.0 102994
21:00+9se48595 0.0 1029130